Terminal Aerodrome Forecast
Issued by NWS

Home | Current Version | Previous Version | Graphics & Text | Print | Product List | Glossary On
Versions: 1 2 3 4 5 6 7 8 9 10 11 12 13 14 15 16 17
000
FTUS43 KABR 191700
TAFMBG
TAF
KMBG 191735Z 1918/2018 18004KT P6SM SKC
     FM200000 14006KT P6SM BKN250
     FM201200 13008KT P6SM VCTS BKN050CB=

USA.gov is the U.S. government's official web portal to all federal, state and local government web resources and services.